Location: Aranbee
(34.0885°N, 118.2342°W)
Time: 07:45:05
(UTC+00:00)

Courier 1B Rocket - Pass Details

Date: 27 November 2020
Orbit: 920 x 1202 km, 28.2° (Epoch: 27 January)

Event Time Altitude Azimuth Distance (km) Brightness Sun altitude
Rises 16:38:20 0° 265° (W) 4,061 7.9 19.6°
Reaches altitude 10° 16:41:18 10° 261° (W) 3,072 7.3 20.1°
Maximum altitude 16:48:39 53° 186° (S) 1,345 6.5 21.1°
Drops below altitude 10° 16:55:32 10° 112° (ESE) 2,884 8.8 22.1°
Sets 16:58:14 0° 107° (ESE) 3,795 9.0 22.5°
